Regional Weather Roundup
Issued by NWS Grand Forks, ND

Home | Current Version | Previous Version | Graphics & Text | Print | Product List | Glossary On
Versions: 1 2 3 4 5 6 7 8 9 10 11 12 13 14 15 16 17 18 19 20 21 22 23 24 25 26 27 28 29 30 31 32 33 34 35 36 37 38 39 40 41 42 43 44 45 46 47 48 49 50
000
ASUS43 KFGF 201131
RWRFGF
PRAIRIE TO PINES  WEATHER ROUNDUP
NATIONAL WEATHER SERVICE EASTERN NORTH DAKOTA/GRAND FORKS ND
500 AM CST TUE FEB 20 2018

 **SATELLITE DATA USED TO AUGMENT SKY COVER AT AUTOMATED STATIONS**
 *****  WEATHER ACROSS EASTERN NORTH DAKOTA  *****

CITY           SKY/WX    TMP DP  RH WIND       PRES   REMARKS
GRAND FORKS    LGT SNOW   4   1  88 N16       30.08F FOG     WCI -15
GRAND FRKS AFB CLOUDY     3  -2  78 N16       30.07F BLWGSNOWWCI -16
GRAND FRKS NWS   N/A      4   2  94 N10       30.08R WCI -12
DEVILS LAKE    LGT SNOW   2  -2  83 NW12      30.07F FOG     WCI -15
FARGO          LGT SNOW   6   2  83 N20       30.01F VSB 1   WCI -14
WAHPETON ARPT  CLOUDY     7   1  78 N15G21    30.00R WCI -11
$$

 ***** WEATHER ACROSS CENTRAL AND WESTERN NORTH DAKOTA  *****

CITY           SKY/WX    TMP DP  RH WIND       PRES   REMARKS
BISMARCK       LGT SNOW   5   0  79 NW7       30.12S WCI  -7
MINOT          LGT SNOW   5   0  79 W8        30.08F WCI  -8
JAMESTOWN      LGT SNOW   3  -1  83 N17       30.07R FOG     WCI -17
MINOT AFB      CLOUDY     3   0  85 NW8       30.07F WCI -10
GARRISON         N/A      2  -2  83 NW8       30.08R WCI -12
WILLISTON      CLOUDY     1  -5  75 W8        30.10S WCI -13
DICKINSON      MOCLDY    -4  -9  79 W8        30.01F WCI -19
HETTINGER      LGT SNOW   0  -5  79 NW10      30.04S WCI -16
$$

 *****  OTHER AIRPORT OBSERVATIONS IN OUR AREA  *****

CITY           SKY/WX    TMP DP  RH WIND       PRES   REMARKS
WALHALLA       LGT SNOW   3   1  92 N7        30.13F WCI  -9
GRAFTON AIRPOR PTSUNNY    3   0  85 N14       30.13F WCI -15
VALLEY CITY AR LGT SNOW   1   0  92 NW17      30.07R WCI -19
CANDO          LGT SNOW   3   0  85 NW6       30.10S WCI  -8
CAVALIER APRT  LGT SNOW   3  -2  78 NW10      30.12F WCI -12
GWINNER          N/A      3   0  85 N16       30.01R FOG     WCI -16
SHEYENNE NWR     N/A      4   1  86 N10       29.95S WCI -11
ROLLA          FLURRIES   3  -2  78 NW10      30.03F WCI -12
 ***** THE ABOVE OBSERVATIONS ARE NON NWS ARE NOT QUALITY
       CONTROLLED AND MAY MIS-REPORT RAIN FOR SNOW...
$$

  *****  WEATHER ACROSS NORTHERN MINNESOTA  *****

CITY           SKY/WX    TMP DP  RH WIND       PRES   REMARKS
FLAG ISLAND    LGT SNOW   3  -2  78 NE12      30.05S WCI -13
WARROAD        LGT SNOW   3   0  85 NE5       30.08R WCI  -6
ROSEAU         NOT AVBL
HALLOCK        CLOUDY     3   0  85 N8        30.12F WCI -10
THF RVR FALLS  LGT SNOW   3   0  85 N12       30.03F FOG     WCI -13
BAUDETTE       LGT SNOW   4   0  83 N7        30.04R FOG     WCI  -8
WASKISH        LGT SNOW   5   1  85 N5        30.02R WCI  -4
CROOKSTON      LGT SNOW   7   1  78 N13       30.04F WCI  -9
STEPHEN NDAWN    N/A      3   0  85 N8          N/A  WCI -10
GREENBUSH NDAW   N/A      3  -2  78 N7          N/A  WCI  -9
$$
  *****  WEATHER ACROSS CENTRAL AND WEST MINNESOTA  *****

CITY           SKY/WX    TMP DP  RH WIND       PRES   REMARKS
FOSSTON        LGT SNOW   3   0  85 N14       30.00F WCI -15
BEMIDJI        LGT SNOW   5   1  85 N8        29.94F WCI  -8
PARK RAPIDS    LGT SNOW   7   2  80 N9        29.91F VSB 1   WCI  -7
ELBOW LAKE     FLURRIES   8   6  88 N9        29.92F WCI  -5
WADENA         LGT SNOW   7   3  85 N9        29.91F WCI  -7
DETROIT LAKES  LGT SNOW   9   5  85 N3        29.94F
MOORHEAD       LGT SNOW   5   0  78 N18       30.01F WCI -15
FERGUS FALLS   FLURRIES   7   3  85 N9G16     29.95F WCI  -7
MORRIS MN      LGT SNOW  10   7  85 N12       29.91F WCI  -4
STAPLES        LGT SNOW   7   3  85 N7        29.90F WCI  -5
$$
  *****  WEATHER ELSEWHERE ACROSS MINNESOTA  *****

CITY           SKY/WX    TMP DP  RH WIND       PRES   REMARKS
DULUTH         HVY SNOW  13   9  84 N9        29.88R VSB 1/4 WCI   1
INTRNTL FALLS  LGT SNOW   4   0  83 N7        30.00R VSB 1   WCI  -8
ELY            LGT SNOW   3   0  85 N5        29.92S WCI  -6
CLOQUET        SNOW      10   5  79 NW9       29.90R VSB 1/2 WCI  -2
WHEATON        CLOUDY     7   1  78 NW9       29.99F WCI  -7
BRAINERD       LGT SNOW  10   5  80 N7        29.89F WCI  -1
HIBBING        SNOW       4   1  88 N8        29.96R VSB 1/2 WCI  -9
ALEXANDRIA     CLOUDY     9   5  84 N10       29.90R FOG     WCI  -5
SAINT CLOUD    LGT SNOW  12   9  87 N9        29.87F FOG     WCI   0
MINNEAPOLIS    LGTSLEET  20  19  96 N7        29.85F WCI  11
$$

  *****  WEATHER ACROSS SOUTH DAKOTA  *****

CITY           SKY/WX    TMP DP  RH WIND       PRES   REMARKS
SIOUX FALLS    LGT SNOW   9   5  84 W9        29.96R FOG     WCI  -4
BROOKINGS      FLURRIES   6   2  83 N12       29.89S WCI  -9
WATERTOWN      CLOUDY     4   0  83 N12       29.89F WCI -12
HURON          CLOUDY     4   0  83 NW15      30.04R WCI -14
SISSETON         N/A      4   1  88 NW14      29.99R WCI -14
ABERDEEN       LGT SNOW   5   0  79 N17       30.05R WCI -14
MITCHELL       LGT SNOW   5   1  83 NW15      30.04R FOG     WCI -13
PIERRE         LGT SNOW   3  -1  83 N16       30.06R FOG     WCI -16
MOBRIDGE       LGT SNOW   5  -1  76 N12       30.04R WCI -11
RAPID CITY     LGT SNOW  -5  -9  83 N10       30.00R FOG     WCI -23
$$

  *****  SOME WEATHER IN NEARBY STATES *****

CITY           SKY/WX    TMP DP  RH WIND       PRES   REMARKS
GLASGOW MT     CLOUDY    -9 -14  78 W6        30.09F WCI -22
GREAT FALLS MT FAIR     -13 -19  75 SW15      29.96F WCI -36
CHEYENNE WY    FAIR      -6 -11  79 NW3       29.73S
SCOTTSBLUFF NE FAIR      -5  -9  83 NW5       29.95S WCI -16
OMAHA NE       FRZ DRZL  21  18  88 NW14      29.93R FOG     WCI   8
DES MOINES IA  FRZ DRZL  30  28  92 W10       29.84R WCI  21
DAVENPORT IA   RAIN      37  35  92 NW13G25   29.84R FOG
CHICAGO IL     HVY RAIN  58  56  93 S15       29.82R FOG
EAU CLAIRE WI  CLOUDY    21  19  92 CALM      29.81R
LA CROSSE WI   MIX PCPN  33  29  85 N5        29.80R
$$

  *****  SOME NATIONAL WEATHER *****

CITY           SKY/WX    TMP DP  RH WIND       PRES   REMARKS
LA GUARDIA NY  DRIZZLE   50  49  96 SW6       30.30R FOG
RALEIGH NC     FOG       52  52 100 CALM      30.42S VSB 1/8
ATLANTA GA     FOG       60  60 100 SE7       30.35R VSB 1/2
NEW ORLEANS LA FAIR      70  68  93 SE10      30.11F
OKLAHOMA CITY  CLOUDY    67  62  84 S21G29    29.73S THUNDER
ALBUQUERQUE NM FLURRIES  30  18  60 N12       29.90R WCI  20
SALT LAKE CITY SNOW      21  17  84 NW14      29.93R VSB 1/4 WCI   8
LOS ANGELES CA FAIR      47  19  33 NW8       30.06F
BOISE ID       FAIR      12   2  64 W7        30.07R WCI   1
SEATTLE WA     MOCLDY    29  18  63 SE7       30.19S WCI  22
$$

*** WEATHER ACROSS MANITOBA...SASKATCHEWAN AND ONTARIO ***
                ***ONTARIO***

CITY           SKY/WX    TMP DP  RH WIND       PRES   REMARKS
GERALDTON      LGT SNOW  -8 -15  71 NE16G24   30.11F DRFTSNOWWCI -30
THUNDER BAY    FLURRIES   5   1  85 N5        30.03S WCI  -4
SIOUX LOOKOUT  FLURRIES  -2 -11  65 NE5       30.06F WCI -12
TORONTO        LGT RAIN  39  37  93 CALM      29.99F VSB 3/8
BIG TROUT LK   CLEAR    -20 -31  57 SE5       30.33F WCI -33
PICKLE LAKE    CLOUDY    -8 -20  54 E6        30.20  WCI -21
DRYDEN         LGT SNOW   0  -6  78 NE9       30.03F WCI -16
KENORA         CLOUDY     1  -9  60 NE10      30.03F WCI -14
$$
                *** MANITOBA***

CITY           SKY/WX    TMP DP  RH WIND       PRES   REMARKS
BRANDON        FLURRIES   1  -4  78 W5        30.10F WCI  -8
DAUPHIN        CLEAR      0  -8  71 SW7       30.12S WCI -13
ISLAND LAKE    NOT AVBL
PILOT MOUND      N/A      1   0  92 NW3         N/A
THE PAS        CLEAR    -11 -17  77 SE7       30.00F WCI -26
THOMPSON       PTCLDY   -13 -18  77 VRB2      30.07R
WINNIPEG       FLURRIES   1  -8  66 W3        30.18R
LYNN LAKE      CLOUDY   -13 -17  84 VRB2      29.91S
CHURCHILL      MOCLDY   -22 -29  69 E9        30.33R WCI -42
GILLAM         CLEAR    -18 -26  69 SE7       30.20S WCI -35
$$
                ***SASKATCHEWAN***

CITY           SKY/WX    TMP DP  RH WIND       PRES   REMARKS
ESTEVAN        FLURRIES   0  -6  78 W7        30.06F WCI -13
KINDERSLEY     CLOUDY     1  -8  66 W16       29.94F WCI -18
LLOYDMINSTER   FLURRIES   5  -2  72 W13       29.87R WCI -12
PRINCE ALBERT  PTCLDY   -11 -17  77 SW7       29.94F WCI -26
REGINA         MOCLDY    -6 -11  77 SW10      30.03F WCI -23
YORKTON        PTCLDY    -8 -13  77 SW13      30.02F WCI -28
N. BATTLEFORD  PTCLDY     3  -8  60 SW9       29.92S WCI -11
LA RONGE       LGT SNOW   3  -4  72 S5        29.87S WCI  -6
SASKATOON      CLOUDY     1  -6  71 SW12      29.96F WCI -15
SWIFT CURRENT  PTCLDY    -8 -15  71 W13       29.95S WCI -28
$$
NOTE: THESE ARE AUTOMATED STATIONS WITH LIMITED QUALITY CONTROL
      "FAIR" INDICATES FEW OR NO CLOUDS BELOW 12,000 FEET WITH NO
      SIGNIFICANT WEATHER AND/OR OBSTRUCTIONS TO VISIBILITY.
      SKY/WX - SKY CONDITION AND SIGNIFICANT WEATHER.
      TMP - AIR TEMPERATURE.    DP   - DEWPOINT TEMPERATURE.
      RH  - RELATIVE HUMIDITY.  PRES - PRESSURE.
      HX  - HEAT INDEX.         WCI  - WIND CHILL INDEX.
$




USA.gov is the U.S. government's official web portal to all federal, state and local government web resources and services.